Houston, TX

4:18 AM CST on February 12, 2016 (GMT -0600)
Houston / Dunn Helistop

Weather History for KMCJ - November, 2012

Change the Weather History Date:

Wednesday, November 21, 2012

  Actual Average (KHOU) Record (KHOU)
Temperature  
Mean Temperature 72 °F 60 °F  
Max Temperature 84 °F 71 °F 84 °F (1999)
Min Temperature 60 °F 50 °F 29 °F (1937)
Degree Days  
Heating Degree Days 0 6  
Month to date heating degree days 87  
Since 1 July heating degree days 117  
Cooling Degree Days 7    
Growing Degree Days 22 (Base 50)    
Moisture  
Dew Point 54 °F    
Average Humidity 62    
Maximum Humidity 94    
Minimum Humidity 22    
Precipitation  
Precipitation 0.00 in 0.14 in 1.54 in (1977)
Month to date precipitation 3.08  
Year to date precipitation 44.77  
Sea Level Pressure  
Sea Level Pressure 30.17 in    
Wind  
Wind Speed 6 mph (WNW)    
Max Wind Speed 10 mph    
Max Gust Speed 18 mph    
Visibility 9 miles    
Events      
T = Trace of Precipitation, MM = Missing Value Source: NWS Daily Summary

Daily Weather History Graph

Daily Weather History Graph

Search for Another Location

Airport or City:

Trip Planner

Search our weather history database for the weather conditions in past years. The results will help you decide how hot, cold, wet, or windy it might be!

Date:

Astronomy

Nov. 21, 2012 Rise Set
Actual Time 6:51 AM CST 5:23 PM CST
Civil Twilight 6:25 AM CST 5:49 PM CST
Nautical Twilight 5:56 AM CST 6:18 PM CST
Astronomical Twilight 5:28 AM CST 6:46 PM CST
Moon 1:15 PM CST (11/21) 12:38 AM CST (11/21)
Length of Visible Light 11h 23m
Length of Day
10h 31m
First Quarter, 62% of the Moon is Illuminated
Nov 21
First Quarter
Nov 28
Full
Dec 6
Last Quarter
Dec 13
New
Dec 19
First Quarter

Hourly Weather History & Observations

Time (CST) Temp. Heat Index Dew Point Humidity Pressure Visibility Wind Dir Wind Speed Gust Speed Precip Events Conditions
12:15 AM 64.4 °F - 57.2 °F 77% 30.16 in 10.0 mi WSW 6.9 mph - N/A   Clear
12:35 AM 64.4 °F - 57.2 °F 77% 30.16 in 10.0 mi WSW 9.2 mph - N/A   Clear
12:55 AM 64.4 °F - 57.2 °F 77% 30.16 in 10.0 mi WSW 10.4 mph 16.1 mph N/A   Clear
1:15 AM 64.4 °F - 57.2 °F 77% 30.16 in 10.0 mi WSW 9.2 mph 16.1 mph N/A   Clear
1:35 AM 64.4 °F - 57.2 °F 77% 30.16 in 10.0 mi West 8.1 mph - N/A   Clear
1:55 AM 64.4 °F - 57.2 °F 77% 30.17 in 10.0 mi West 5.8 mph - N/A   Clear
2:15 AM 62.6 °F - 57.2 °F 82% 30.16 in 10.0 mi West 6.9 mph - N/A   Clear
2:35 AM 64.4 °F - 57.2 °F 77% 30.16 in 10.0 mi West 6.9 mph - N/A   Clear
2:55 AM 64.4 °F - 57.2 °F 77% 30.17 in 10.0 mi West 6.9 mph - N/A   Clear
3:15 AM 62.6 °F - 57.2 °F 82% 30.17 in 10.0 mi West 6.9 mph - N/A   Clear
3:35 AM 62.6 °F - 57.2 °F 82% 30.17 in 10.0 mi West 8.1 mph - N/A   Clear
3:55 AM 62.6 °F - 57.2 °F 82% 30.17 in 10.0 mi WNW 6.9 mph - N/A   Clear
4:15 AM 62.6 °F - 57.2 °F 82% 30.17 in 10.0 mi WNW 5.8 mph - N/A   Clear
4:35 AM 62.6 °F - 57.2 °F 82% 30.17 in 10.0 mi NW 5.8 mph - N/A   Clear
4:55 AM 62.6 °F - 57.2 °F 82% 30.17 in 10.0 mi WNW 5.8 mph - N/A   Clear
5:15 AM 62.6 °F - 59.0 °F 88% 30.17 in 10.0 mi NW 4.6 mph - N/A   Clear
5:35 AM 60.8 °F - 57.2 °F 88% 30.17 in 10.0 mi NNW 4.6 mph - N/A   Clear
5:55 AM 60.8 °F - 57.2 °F 88% 30.18 in 7.0 mi NNW 4.6 mph - N/A   Clear
6:15 AM 60.8 °F - 59.0 °F 94% 30.18 in 5.0 mi NNW 4.6 mph - N/A   Clear
6:35 AM 60.8 °F - 59.0 °F 94% 30.19 in 4.0 mi NW 8.1 mph - N/A   Clear
6:55 AM 60.8 °F - 59.0 °F 94% 30.20 in 2.5 mi NNW 4.6 mph - N/A   Clear
7:15 AM 60.8 °F - 59.0 °F 94% 30.21 in 3.0 mi NNW 6.9 mph - N/A   Clear
7:35 AM 62.6 °F - 59.0 °F 88% 30.21 in 2.5 mi NNW 5.8 mph - N/A   Clear
7:55 AM 62.6 °F - 59.0 °F 88% 30.22 in 4.0 mi NNW 4.6 mph - N/A   Clear
8:15 AM 62.6 °F - 59.0 °F 88% 30.23 in 4.0 mi North 5.8 mph - N/A   Clear
8:35 AM 64.4 °F - 59.0 °F 83% 30.23 in 5.0 mi North 5.8 mph - N/A   Clear
8:55 AM 66.2 °F - 57.2 °F 73% 30.23 in 6.0 mi NNW 4.6 mph - N/A   Clear
9:15 AM 68.0 °F - 57.2 °F 68% 30.24 in 8.0 mi North 5.8 mph - N/A   Clear
9:35 AM 69.8 °F - 57.2 °F 64% 30.25 in 8.0 mi NNW 3.5 mph - N/A   Clear
9:55 AM 71.6 °F - 57.2 °F 60% 30.24 in 9.0 mi North 4.6 mph - N/A   Clear
10:15 AM 73.4 °F - 57.2 °F 57% 30.24 in 10.0 mi North 3.5 mph - N/A   Clear
10:35 AM 75.2 °F - 57.2 °F 53% 30.24 in 10.0 mi North 5.8 mph - N/A   Clear
10:55 AM 77.0 °F - 57.2 °F 50% 30.23 in 10.0 mi NNE 6.9 mph - N/A   Clear
11:15 AM 75.2 °F - 57.2 °F 53% 30.22 in 10.0 mi NE 8.1 mph - N/A   Clear
11:35 AM 77.0 °F - 57.2 °F 50% 30.21 in 10.0 mi NE 6.9 mph - N/A   Clear
11:55 AM 77.0 °F - 55.4 °F 47% 30.20 in 10.0 mi NE 5.8 mph - N/A   Clear
12:15 PM 78.8 °F - 55.4 °F 44% 30.19 in 10.0 mi Calm Calm - N/A   Clear
12:35 PM 80.6 °F 80.3 °F 53.6 °F 39% 30.18 in 10.0 mi Calm Calm - N/A   Clear
12:55 PM 80.6 °F 80.3 °F 53.6 °F 39% 30.17 in 10.0 mi Calm Calm - N/A   Clear
1:15 PM 82.4 °F 81.4 °F 53.6 °F 37% 30.16 in 10.0 mi Calm Calm - N/A   Clear
1:35 PM 82.4 °F - 50.0 °F 32% 30.15 in 10.0 mi Calm Calm - N/A   Clear
1:55 PM 82.4 °F - 46.4 °F 28% 30.14 in 10.0 mi NNW 4.6 mph - N/A   Clear
2:15 PM 82.4 °F - 48.2 °F 30% 30.14 in 10.0 mi Calm Calm - N/A   Clear
2:35 PM 84.2 °F - 41.0 °F 22% 30.13 in 10.0 mi Calm Calm - N/A   Clear
2:55 PM 84.2 °F - 41.0 °F 22% 30.13 in 10.0 mi East 4.6 mph - N/A   Clear
3:15 PM 80.6 °F - 44.6 °F 28% 30.13 in 10.0 mi Calm Calm - N/A   Clear
3:35 PM 82.4 °F - 41.0 °F 23% 30.13 in 10.0 mi Calm Calm - N/A   Clear
3:55 PM 82.4 °F - 41.0 °F 23% 30.12 in 10.0 mi East 5.8 mph - N/A   Clear
4:15 PM 80.6 °F - 41.0 °F 24% 30.12 in 10.0 mi Calm Calm - N/A   Clear
4:35 PM 77.0 °F - 41.0 °F 28% 30.12 in 10.0 mi Calm Calm - N/A   Clear
4:55 PM 78.8 °F - 42.8 °F 28% 30.12 in 10.0 mi Calm Calm - N/A   Clear
5:15 PM 77.0 °F - 44.6 °F 32% 30.12 in 10.0 mi Calm Calm - N/A   Clear
5:35 PM 75.2 °F - 50.0 °F 41% 30.13 in 10.0 mi South 5.8 mph - N/A   Clear
5:55 PM 75.2 °F - 51.8 °F 44% 30.13 in 10.0 mi SSE 5.8 mph - N/A   Clear
6:15 PM 73.4 °F - 53.6 °F 50% 30.13 in 10.0 mi South 9.2 mph - N/A   Clear
6:35 PM 71.6 °F - 55.4 °F 57% 30.14 in 10.0 mi South 6.9 mph - N/A   Clear
6:55 PM 71.6 °F - 55.4 °F 57% 30.14 in 10.0 mi SW 5.8 mph - N/A   Clear
7:15 PM 71.6 °F - 55.4 °F 57% 30.15 in 10.0 mi SW 8.1 mph 16.1 mph N/A   Clear
7:35 PM 69.8 °F - 55.4 °F 60% 30.15 in 10.0 mi SW 9.2 mph 18.4 mph N/A   Clear
7:55 PM 68.0 °F - 55.4 °F 64% 30.15 in 10.0 mi SW 9.2 mph - N/A   Clear
8:15 PM 68.0 °F - 55.4 °F 64% 30.15 in 10.0 mi SSW 5.8 mph - N/A   Clear
8:35 PM 68.0 °F - 55.4 °F 64% 30.17 in 10.0 mi Calm Calm - N/A   Clear
8:55 PM 68.0 °F - 55.4 °F 64% 30.17 in 10.0 mi Calm Calm - N/A   Clear
9:15 PM 68.0 °F - 55.4 °F 64% 30.17 in 10.0 mi WSW 4.6 mph - N/A   Clear
9:35 PM 68.0 °F - 55.4 °F 64% 30.17 in 10.0 mi SW 3.5 mph - N/A   Clear
9:55 PM 68.0 °F - 55.4 °F 64% 30.17 in 10.0 mi SW 3.5 mph - N/A   Clear
10:15 PM 66.2 °F - 55.4 °F 68% 30.17 in 10.0 mi South 5.8 mph - N/A   Clear
10:35 PM 66.2 °F - 55.4 °F 68% 30.17 in 10.0 mi WSW 3.5 mph - N/A   Clear
10:55 PM 66.2 °F - 55.4 °F 68% 30.16 in 10.0 mi SW 4.6 mph - N/A   Clear
11:15 PM 66.2 °F - 57.2 °F 73% 30.16 in 10.0 mi SW 4.6 mph - N/A   Clear
11:35 PM 66.2 °F - 57.2 °F 73% 30.15 in 10.0 mi SW 3.5 mph - N/A   Clear
11:55 PM 66.2 °F - 57.2 °F 73% 30.15 in 10.0 mi SW 5.8 mph - N/A   Clear